"Sample Date","Sample Time","Sensor Name","Sample Value","Units","Flow Rate","Sample Interval","Sample Volume","Laser Status","Number Channels","Micron Size 0","Counts/Channel 0","Micron Size 1","Counts/Channel 1","Micron Size 2","Counts/Channel 2","Micron Size 3","Counts/Channel 3","Micron Size 4","Counts/Channel 4","Micron Size 5","Counts/Channel 5","Micron Size 6","Counts/Channel 6","Micron Size 7","Counts/Channel 7","Micron Size 8","Counts/Channel 8","Micron Size 9","Counts/Channel 9","Micron Size 10","Counts/Channel 10","Micron Size 11","Counts/Channel 11","Micron Size 12","Counts/Channel 12","Micron Size 13","Counts/Channel 13","Micron Size 14","Counts/Channel 14","Micron Size 15","Counts/Channel 15","Micron Size 16","Counts/Channel 16","Micron Size 17","Counts/Channel 17","Micron Size 18","Counts/Channel 18","Micron Size 19","Counts/Channel 19","Micron Size 20","Counts/Channel 20","Micron Size 21","Counts/Channel 21","Micron Size 22","Counts/Channel 22","Micron Size 23","Counts/Channel 23","Micron Size 24","Counts/Channel 24","Micron Size 25","Counts/Channel 25","Micron Size 26","Counts/Channel 26","Micron Size 27","Counts/Channel 27","Micron Size 28","Counts/Channel 28","Micron Size 29","Counts/Channel 29","Micron Size 30","Counts/Channel 30","Micron Size 31","Counts/Channel 31"
"07/06/06","05:00:03","AMMA06",49949.000,"cc",28313.523,6.00,2831.353,1,6,0.100,24510.000,0.200,21448.000,0.300,2958.000,0.500,656.000,1.000,377.000,5.000,0
"07/06/06","05:00:09","AMMA06",48781.000,"cc",28373.961,6.00,2837.396,1,6,0.100,24043.000,0.200,20908.000,0.300,2878.000,0.500,572.000,1.000,380.000,5.000,0
"07/06/06","05:00:15","AMMA06",48786.000,"cc",28317.715,6.00,2831.772,1,6,0.100,23931.000,0.200,21087.000,0.300,2868.000,0.500,558.000,1.000,342.000,5.000,0
"07/06/06","05:00:21","AMMA06",48814.000,"cc",28306.986,6.00,2830.699,1,6,0.100,23983.000,0.200,21019.000,0.300,2877.000,0.500,586.000,1.000,349.000,5.000,0
"07/06/06","05:00:27","AMMA06",49081.000,"cc",28288.813,6.00,2828.881,1,6,0.100,24068.000,0.200,21138.000,0.300,2989.000,0.500,570.000,1.000,316.000,5.000,0
"07/06/06","05:00:33","AMMA06",49354.000,"cc",28345.416,6.00,2834.542,1,6,0.100,24229.000,0.200,20971.000,0.300,3049.000,0.500,707.000,1.000,398.000,5.000,0
"07/06/06","05:00:39","AMMA06",49296.000,"cc",28334.801,6.00,2833.480,1,6,0.100,23948.000,0.200,21486.000,0.300,2952.000,0.500,549.000,1.000,361.000,5.000,0
"07/06/06","05:00:45","AMMA06",48989.000,"cc",28322.861,6.00,2832.286,1,6,0.100,24181.000,0.200,21104.000,0.300,2808.000,0.500,556.000,1.000,340.000,5.000,0
"07/06/06","05:00:51","AMMA06",49218.000,"cc",28284.477,6.00,2828.448,1,6,0.100,24057.000,0.200,21271.000,0.300,2943.000,0.500,592.000,1.000,355.000,5.000,0
"07/06/06","05:00:57","AMMA06",50248.000,"cc",28323.992,6.00,2832.399,1,6,0.100,24528.000,0.200,21434.000,0.300,3116.000,0.500,757.000,1.000,413.000,5.000,0
"07/06/06","05:01:03","AMMA06",49660.000,"cc",28302.773,6.00,2830.278,1,6,0.100,24445.000,0.200,21192.000,0.300,2998.000,0.500,629.000,1.000,396.000,5.000,0
"07/06/06","05:01:09","AMMA06",49357.000,"cc",28327.154,6.00,2832.716,1,6,0.100,24137.000,0.200,21379.000,0.300,2895.000,0.500,576.000,1.000,370.000,5.000,0
"07/06/06","05:01:15","AMMA06",50582.000,"cc",28330.932,6.00,2833.093,1,6,0.100,24567.000,0.200,21771.000,0.300,3179.000,0.500,695.000,1.000,370.000,5.000,0
"07/06/06","05:01:21","AMMA06",55182.000,"cc",28336.758,6.00,2833.676,1,6,0.100,26510.000,0.200,22459.000,0.300,4282.000,0.500,1328.000,1.000,603.000,5.000,0
"07/06/06","05:01:27","AMMA06",55151.000,"cc",28349.565,6.00,2834.957,1,6,0.100,26361.000,0.200,22680.000,0.300,4158.000,0.500,1311.000,1.000,641.000,5.000,0
"07/06/06","05:01:33","AMMA06",52868.000,"cc",28315.707,6.00,2831.571,1,6,0.100,25260.000,0.200,22288.000,0.300,3674.000,0.500,1106.000,1.000,540.000,5.000,0
"07/06/06","05:01:39","AMMA06",50263.000,"cc",28280.748,6.00,2828.075,1,6,0.100,24363.000,0.200,21718.000,0.300,3109.000,0.500,703.000,1.000,370.000,5.000,0
"07/06/06","05:01:45","AMMA06",50255.000,"cc",28341.678,6.00,2834.168,1,6,0.100,24616.000,0.200,21528.000,0.300,3118.000,0.500,627.000,1.000,366.000,5.000,0
"07/06/06","05:01:51","AMMA06",49068.000,"cc",28294.156,6.00,2829.416,1,6,0.100,24040.000,0.200,21329.000,0.300,2838.000,0.500,510.000,1.000,351.000,5.000,0
"07/06/06","05:01:57","AMMA06",48552.000,"cc",28351.791,6.00,2835.179,1,6,0.100,23772.000,0.200,21000.000,0.300,2911.000,0.500,567.000,1.000,302.000,5.000,0
"07/06/06","05:02:03","AMMA06",49865.000,"cc",28296.879,6.00,2829.688,1,6,0.100,24364.000,0.200,21259.000,0.300,3074.000,0.500,733.000,1.000,435.000,5.000,0
"07/06/06","05:02:09","AMMA06",49053.000,"cc",28281.348,6.00,2828.135,1,6,0.100,23799.000,0.200,21313.000,0.300,2994.000,0.500,578.000,1.000,369.000,5.000,0
"07/06/06","05:02:15","AMMA06",55665.000,"cc",28362.793,6.00,2836.280,1,6,0.100,26434.000,0.200,22970.000,0.300,4262.000,0.500,1371.000,1.000,628.000,5.000,0
"07/06/06","05:02:21","AMMA06",52941.000,"cc",28375.320,6.00,2837.532,1,6,0.100,25494.000,0.200,22156.000,0.300,3707.000,0.500,1028.000,1.000,556.000,5.000,0
"07/06/06","05:02:27","AMMA06",51796.000,"cc",28264.457,6.00,2826.446,1,6,0.100,25064.000,0.200,21824.000,0.300,3495.000,0.500,912.000,1.000,501.000,5.000,0
"07/06/06","05:02:33","AMMA06",49880.000,"cc",28271.977,6.00,2827.198,1,6,0.100,24135.000,0.200,21610.000,0.300,3084.000,0.500,659.000,1.000,392.000,5.000,0
"07/06/06","05:02:39","AMMA06",49365.000,"cc",28294.281,6.00,2829.428,1,6,0.100,23893.000,0.200,21466.000,0.300,3011.000,0.500,643.000,1.000,352.000,5.000,0
"07/06/06","05:02:45","AMMA06",49579.000,"cc",28321.020,6.00,2832.102,1,6,0.100,23908.000,0.200,21736.000,0.300,2974.000,0.500,619.000,1.000,342.000,5.000,0
"07/06/06","05:02:51","AMMA06",49390.000,"cc",28350.145,6.00,2835.015,1,6,0.100,23767.000,0.200,21593.000,0.300,3029.000,0.500,635.000,1.000,366.000,5.000,0
"07/06/06","05:02:57","AMMA06",50347.000,"cc",28323.721,6.00,2832.372,1,6,0.100,24475.000,0.200,21620.000,0.300,3095.000,0.500,736.000,1.000,421.000,5.000,0
"07/06/06","05:03:03","AMMA06",50151.000,"cc",28322.549,6.00,2832.255,1,6,0.100,24176.000,0.200,21745.000,0.300,3121.000,0.500,694.000,1.000,415.000,5.000,0
"07/06/06","05:03:09","AMMA06",49897.000,"cc",28288.994,6.00,2828.900,1,6,0.100,24281.000,0.200,21492.000,0.300,3060.000,0.500,672.000,1.000,392.000,5.000,0
"07/06/06","05:03:15","AMMA06",49788.000,"cc",28305.484,6.00,2830.549,1,6,0.100,24098.000,0.200,21629.000,0.300,3063.000,0.500,606.000,1.000,392.000,5.000,0
"07/06/06","05:03:21","AMMA06",49375.000,"cc",28330.018,6.00,2833.002,1,6,0.100,23885.000,0.200,21554.000,0.300,3024.000,0.500,579.000,1.000,333.000,5.000,0
"07/06/06","05:03:27","AMMA06",49577.000,"cc",28320.107,6.00,2832.011,1,6,0.100,24048.000,0.200,21519.000,0.300,3057.000,0.500,602.000,1.000,351.000,5.000,0
"07/06/06","05:03:33","AMMA06",56767.000,"cc",28369.457,6.00,2836.946,1,6,0.100,26608.000,0.200,23343.000,0.300,4596.000,0.500,1521.000,1.000,699.000,5.000,0
"07/06/06","05:03:39","AMMA06",51876.000,"cc",28283.045,6.00,2828.305,1,6,0.100,24715.000,0.200,22124.000,0.300,3596.000,0.500,930.000,1.000,511.000,5.000,0
"07/06/06","05:03:45","AMMA06",50161.000,"cc",28340.723,6.00,2834.073,1,6,0.100,24149.000,0.200,21698.000,0.300,3148.000,0.500,723.000,1.000,443.000,5.000,0
"07/06/06","05:03:51","AMMA06",49891.000,"cc",28303.805,6.00,2830.381,1,6,0.100,24164.000,0.200,21739.000,0.300,3041.000,0.500,585.000,1.000,362.000,5.000,0
"07/06/06","05:03:57","AMMA06",49210.000,"cc",28317.432,6.00,2831.743,1,6,0.100,23664.000,0.200,21479.000,0.300,3058.000,0.500,652.000,1.000,357.000,5.000,0
"07/06/06","05:04:03","AMMA06",49217.000,"cc",28304.193,6.00,2830.419,1,6,0.100,23565.000,0.200,21816.000,0.300,2909.000,0.500,611.000,1.000,316.000,5.000,0
"07/06/06","05:04:09","AMMA06",48787.000,"cc",28355.338,6.00,2835.534,1,6,0.100,23541.000,0.200,21478.000,0.300,2882.000,0.500,547.000,1.000,339.000,5.000,0
"07/06/06","05:04:15","AMMA06",49083.000,"cc",28290.555,6.00,2829.056,1,6,0.100,23655.000,0.200,21509.000,0.300,2952.000,0.500,606.000,1.000,361.000,5.000,0
"07/06/06","05:04:21","AMMA06",49150.000,"cc",28344.844,6.00,2834.485,1,6,0.100,23737.000,0.200,21585.000,0.300,2933.000,0.500,507.000,1.000,388.000,5.000,0
"07/06/06","05:04:27","AMMA06",48825.000,"cc",28322.633,6.00,2832.263,1,6,0.100,23595.000,0.200,21444.000,0.300,2885.000,0.500,592.000,1.000,309.000,5.000,0
"07/06/06","05:04:33","AMMA06",49559.000,"cc",28286.326,6.00,2828.633,1,6,0.100,24206.000,0.200,21372.000,0.300,3006.000,0.500,630.000,1.000,344.000,5.000,1.000
"07/06/06","05:04:39","AMMA06",49071.000,"cc",28295.758,6.00,2829.576,1,6,0.100,23928.000,0.200,21387.000,0.300,2829.000,0.500,580.000,1.000,347.000,5.000,0
"07/06/06","05:04:45","AMMA06",48888.000,"cc",28360.135,6.00,2836.014,1,6,0.100,23893.000,0.200,21188.000,0.300,2911.000,0.500,570.000,1.000,326.000,5.000,0
"07/06/06","05:04:51","AMMA06",48707.000,"cc",28369.740,6.00,2836.974,1,6,0.100,23596.000,0.200,21319.000,0.300,2892.000,0.500,546.000,1.000,354.000,5.000,0
"07/06/06","05:04:57","AMMA06",48833.000,"cc",28305.518,6.00,2830.552,1,6,0.100,23801.000,0.200,21279.000,0.300,2882.000,0.500,547.000,1.000,324.000,5.000,0
"07/06/06","05:05:03","AMMA06",48792.000,"cc",28281.697,6.00,2828.170,1,6,0.100,23828.000,0.200,21199.000,0.300,2830.000,0.500,586.000,1.000,349.000,5.000,0
"07/06/06","05:05:09","AMMA06",49017.000,"cc",28307.758,6.00,2830.776,1,6,0.100,23893.000,0.200,21372.000,0.300,2862.000,0.500,549.000,1.000,341.000,5.000,0
"07/06/06","05:05:15","AMMA06",49071.000,"cc",28342.582,6.00,2834.258,1,6,0.100,24212.000,0.200,21194.000,0.300,2769.000,0.500,562.000,1.000,334.000,5.000,0
"07/06/06","05:05:21","AMMA06",48645.000,"cc",28273.158,6.00,2827.316,1,6,0.100,23972.000,0.200,21036.000,0.300,2793.000,0.500,530.000,1.000,314.000,5.000,0
"07/06/06","05:05:27","AMMA06",48949.000,"cc",28345.473,6.00,2834.547,1,6,0.100,24106.000,0.200,21202.000,0.300,2873.000,0.500,486.000,1.000,282.000,5.000,0
"07/06/06","05:05:33","AMMA06",48659.000,"cc",28328.248,6.00,2832.825,1,6,0.100,23814.000,0.200,21115.000,0.300,2803.000,0.500,599.000,1.000,328.000,5.000,0
"07/06/06","05:05:39","AMMA06",49096.000,"cc",28319.772,6.00,2831.977,1,6,0.100,24213.000,0.200,21040.000,0.300,2935.000,0.500,559.000,1.000,349.000,5.000,0
"07/06/06","05:05:45","AMMA06",50186.000,"cc",28319.854,6.00,2831.986,1,6,0.100,24614.000,0.200,21240.000,0.300,3140.000,0.500,797.000,1.000,395.000,5.000,0
"07/06/06","05:05:51","AMMA06",50122.000,"cc",28332.428,6.00,2833.243,1,6,0.100,24684.000,0.200,21279.000,0.300,3040.000,0.500,722.000,1.000,397.000,5.000,0
"07/06/06","05:05:57","AMMA06",49874.000,"cc",28251.260,6.00,2825.126,1,6,0.100,24757.000,0.200,20932.000,0.300,3053.000,0.500,722.000,1.000,410.000,5.000,0
"07/06/06","05:06:03","AMMA06",51852.000,"cc",28304.529,6.00,2830.453,1,6,0.100,25628.000,0.200,21443.000,0.300,3376.000,0.500,957.000,1.000,448.000,5.000,0
"07/06/06","05:06:09","AMMA06",49086.000,"cc",28329.613,6.00,2832.961,1,6,0.100,24592.000,0.200,20748.000,0.300,2842.000,0.500,549.000,1.000,355.000,5.000,0
"07/06/06","05:06:15","AMMA06",49818.000,"cc",28348.926,6.00,2834.893,1,6,0.100,24832.000,0.200,21083.000,0.300,2892.000,0.500,637.000,1.000,374.000,5.000,0
"07/06/06","05:06:21","AMMA06",51910.000,"cc",28292.832,6.00,2829.283,1,6,0.100,25846.000,0.200,21426.000,0.300,3328.000,0.500,848.000,1.000,462.000,5.000,0
"07/06/06","05:06:27","AMMA06",53096.000,"cc",28262.164,6.00,2826.217,1,6,0.100,26169.000,0.200,21611.000,0.300,3744.000,0.500,1047.000,1.000,525.000,5.000,0
"07/06/06","05:06:33","AMMA06",50044.000,"cc",28332.309,6.00,2833.231,1,6,0.100,24992.000,0.200,20990.000,0.300,3027.000,0.500,679.000,1.000,356.000,5.000,0
"07/06/06","05:06:39","AMMA06",52142.000,"cc",28380.006,6.00,2838.001,1,6,0.100,25773.000,0.200,21635.000,0.300,3345.000,0.500,894.000,1.000,495.000,5.000,0
"07/06/06","05:06:45","AMMA06",51505.000,"cc",28306.475,6.00,2830.648,1,6,0.100,25429.000,0.200,21420.000,0.300,3325.000,0.500,858.000,1.000,473.000,5.000,0
"07/06/06","05:06:51","AMMA06",51955.000,"cc",28326.088,6.00,2832.609,1,6,0.100,25590.000,0.200,21352.000,0.300,3468.000,0.500,1029.000,1.000,516.000,5.000,0
"07/06/06","05:06:57","AMMA06",55174.000,"cc",28303.984,6.00,2830.399,1,6,0.100,26966.000,0.200,22113.000,0.300,4109.000,0.500,1339.000,1.000,647.000,5.000,0
"07/06/06","05:07:03","AMMA06",50645.000,"cc",28331.881,6.00,2833.188,1,6,0.100,25438.000,0.200,20999.000,0.300,3006.000,0.500,770.000,1.000,432.000,5.000,0
"07/06/06","05:07:09","AMMA06",53521.000,"cc",28305.818,6.00,2830.582,1,6,0.100,26435.000,0.200,21775.000,0.300,3692.000,0.500,1067.000,1.000,552.000,5.000,0
"07/06/06","05:07:15","AMMA06",51855.000,"cc",28276.846,6.00,2827.685,1,6,0.100,26080.000,0.200,21322.000,0.300,3218.000,0.500,821.000,1.000,414.000,5.000,0
"07/06/06","05:07:21","AMMA06",51183.000,"cc",28311.195,6.00,2831.120,1,6,0.100,25714.000,0.200,21191.000,0.300,3105.000,0.500,727.000,1.000,446.000,5.000,0
"07/06/06","05:07:27","AMMA06",51018.000,"cc",28371.465,6.00,2837.147,1,6,0.100,25610.000,0.200,21177.000,0.300,3041.000,0.500,760.000,1.000,430.000,5.000,0
"07/06/06","05:07:33","AMMA06",49454.000,"cc",28352.748,6.00,2835.275,1,6,0.100,24736.000,0.200,20791.000,0.300,2887.000,0.500,625.000,1.000,415.000,5.000,0
"07/06/06","05:07:39","AMMA06",50561.000,"cc",28339.393,6.00,2833.940,1,6,0.100,25222.000,0.200,20883.000,0.300,3260.000,0.500,789.000,1.000,407.000,5.000,0
"07/06/06","05:07:45","AMMA06",50713.000,"cc",28302.877,6.00,2830.288,1,6,0.100,25203.000,0.200,21109.000,0.300,3142.000,0.500,844.000,1.000,415.000,5.000,0
"07/06/06","05:07:51","AMMA06",50482.000,"cc",28301.785,6.00,2830.179,1,6,0.100,25103.000,0.200,21035.000,0.300,3123.000,0.500,783.000,1.000,438.000,5.000,0
"07/06/06","05:07:57","AMMA06",49606.000,"cc",28329.596,6.00,2832.960,1,6,0.100,24889.000,0.200,20814.000,0.300,2897.000,0.500,626.000,1.000,380.000,5.000,0
"07/06/06","05:08:03","AMMA06",50870.000,"cc",28224.334,6.00,2822.434,1,6,0.100,25342.000,0.200,21387.000,0.300,3075.000,0.500,721.000,1.000,345.000,5.000,0
"07/06/06","05:08:09","AMMA06",50750.000,"cc",28295.809,6.00,2829.581,1,6,0.100,25359.000,0.200,21234.000,0.300,3038.000,0.500,712.000,1.000,407.000,5.000,0
"07/06/06","05:08:15","AMMA06",51618.000,"cc",28339.078,6.00,2833.908,1,6,0.100,25667.000,0.200,21420.000,0.300,3204.000,0.500,874.000,1.000,453.000,5.000,0
"07/06/06","05:08:21","AMMA06",51334.000,"cc",28310.074,6.00,2831.008,1,6,0.100,25518.000,0.200,21319.000,0.300,3174.000,0.500,860.000,1.000,463.000,5.000,0
"07/06/06","05:08:27","AMMA06",49981.000,"cc",28382.842,6.00,2838.284,1,6,0.100,25109.000,0.200,20841.000,0.300,2982.000,0.500,694.000,1.000,355.000,5.000,0
"07/06/06","05:08:33","AMMA06",48808.000,"cc",28300.133,6.00,2830.013,1,6,0.100,24489.000,0.200,20690.000,0.300,2709.000,0.500,562.000,1.000,358.000,5.000,0
"07/06/06","05:08:39","AMMA06",49360.000,"cc",28288.170,6.00,2828.817,1,6,0.100,24961.000,0.200,20757.000,0.300,2764.000,0.500,586.000,1.000,292.000,5.000,0
"07/06/06","05:08:45","AMMA06",50181.000,"cc",28298.346,6.00,2829.835,1,6,0.100,25104.000,0.200,20905.000,0.300,2961.000,0.500,780.000,1.000,431.000,5.000,0
"07/06/06","05:08:51","AMMA06",49481.000,"cc",28336.113,6.00,2833.612,1,6,0.100,25091.000,0.200,20623.000,0.300,2791.000,0.500,629.000,1.000,347.000,5.000,0
"07/06/06","05:08:57","AMMA06",49580.000,"cc",28314.852,6.00,2831.485,1,6,0.100,25001.000,0.200,20845.000,0.300,2785.000,0.500,579.000,1.000,370.000,5.000,0
"07/06/06","05:09:03","AMMA06",50515.000,"cc",28375.736,6.00,2837.574,1,6,0.100,25359.000,0.200,21044.000,0.300,2996.000,0.500,723.000,1.000,393.000,5.000,0
"07/06/06","05:09:09","AMMA06",50075.000,"cc",28347.750,6.00,2834.775,1,6,0.100,25198.000,0.200,20875.000,0.300,2908.000,0.500,704.000,1.000,390.000,5.000,0
"07/06/06","05:09:15","AMMA06",52424.000,"cc",28278.025,6.00,2827.803,1,6,0.100,26306.000,0.200,21285.000,0.300,3379.000,0.500,979.000,1.000,475.000,5.000,0
"07/06/06","05:09:21","AMMA06",51784.000,"cc",28282.393,6.00,2828.240,1,6,0.100,25908.000,0.200,21213.000,0.300,3327.000,0.500,861.000,1.000,475.000,5.000,0
"07/06/06","05:09:27","AMMA06",50175.000,"cc",28315.570,6.00,2831.557,1,6,0.100,25151.000,0.200,20980.000,0.300,2966.000,0.500,686.000,1.000,392.000,5.000,0
"07/06/06","05:09:33","AMMA06",50074.000,"cc",28333.633,6.00,2833.364,1,6,0.100,25138.000,0.200,20916.000,0.300,2926.000,0.500,687.000,1.000,407.000,5.000,0
"07/06/06","05:09:39","AMMA06",50080.000,"cc",28267.371,6.00,2826.737,1,6,0.100,24918.000,0.200,21195.000,0.300,2925.000,0.500,686.000,1.000,356.000,5.000,0
"07/06/06","05:09:45","AMMA06",51425.000,"cc",28330.957,6.00,2833.096,1,6,0.100,25571.000,0.200,21387.000,0.300,3245.000,0.500,776.000,1.000,446.000,5.000,0
"07/06/06","05:09:51","AMMA06",49625.000,"cc",28303.535,6.00,2830.354,1,6,0.100,24811.000,0.200,20933.000,0.300,2817.000,0.500,671.000,1.000,393.000,5.000,0
"07/06/06","05:09:57","AMMA06",51539.000,"cc",28318.277,6.00,2831.828,1,6,0.100,25868.000,0.200,21165.000,0.300,3231.000,0.500,835.000,1.000,440.000,5.000,0
"07/06/06","05:10:03","AMMA06",49867.000,"cc",28348.701,6.00,2834.870,1,6,0.100,24965.000,0.200,21046.000,0.300,2822.000,0.500,664.000,1.000,370.000,5.000,0
"07/06/06","05:10:09","AMMA06",49700.000,"cc",28302.510,6.00,2830.251,1,6,0.100,25004.000,0.200,20823.000,0.300,2806.000,0.500,675.000,1.000,392.000,5.000,0
"07/06/06","05:10:15","AMMA06",49350.000,"cc",28333.383,6.00,2833.338,1,6,0.100,24624.000,0.200,20892.000,0.300,2879.000,0.500,591.000,1.000,364.000,5.000,0
"07/06/06","05:10:21","AMMA06",53091.000,"cc",28307.481,6.00,2830.748,1,6,0.100,26175.000,0.200,21861.000,0.300,3582.000,0.500,1005.000,1.000,468.000,5.000,0
"07/06/06","05:10:27","AMMA06",54548.000,"cc",28266.445,6.00,2826.645,1,6,0.100,26746.000,0.200,22269.000,0.300,3846.000,0.500,1152.000,1.000,535.000,5.000,0
"07/06/06","05:10:33","AMMA06",51861.000,"cc",28330.857,6.00,2833.086,1,6,0.100,25764.000,0.200,21587.000,0.300,3295.000,0.500,783.000,1.000,432.000,5.000,0
"07/06/06","05:10:39","AMMA06",51036.000,"cc",28347.963,6.00,2834.796,1,6,0.100,25185.000,0.200,21499.000,0.300,3190.000,0.500,770.000,1.000,392.000,5.000,0
"07/06/06","05:10:45","AMMA06",50411.000,"cc",28354.531,6.00,2835.453,1,6,0.100,25064.000,0.200,21262.000,0.300,3025.000,0.500,676.000,1.000,384.000,5.000,0
"07/06/06","05:10:51","AMMA06",49949.000,"cc",28279.098,6.00,2827.910,1,6,0.100,24967.000,0.200,21167.000,0.300,2863.000,0.500,588.000,1.000,364.000,5.000,0
"07/06/06","05:10:57","AMMA06",50705.000,"cc",28331.080,6.00,2833.108,1,6,0.100,24989.000,0.200,21620.000,0.300,2950.000,0.500,739.000,1.000,407.000,5.000,0
"07/06/06","05:11:03","AMMA06",49334.000,"cc",28331.002,6.00,2833.100,1,6,0.100,24633.000,0.200,20885.000,0.300,2879.000,0.500,578.000,1.000,359.000,5.000,0
"07/06/06","05:11:09","AMMA06",50214.000,"cc",28274.252,6.00,2827.425,1,6,0.100,24651.000,0.200,21609.000,0.300,2928.000,0.500,655.000,1.000,371.000,5.000,0
"07/06/06","05:11:15","AMMA06",49936.000,"cc",28277.232,6.00,2827.723,1,6,0.100,24745.000,0.200,21249.000,0.300,2978.000,0.500,627.000,1.000,337.000,5.000,0
"07/06/06","05:11:21","AMMA06",49878.000,"cc",28324.305,6.00,2832.431,1,6,0.100,24940.000,0.200,21180.000,0.300,2831.000,0.500,596.000,1.000,331.000,5.000,0
"07/06/06","05:11:27","AMMA06",51039.000,"cc",28282.588,6.00,2828.259,1,6,0.100,25286.000,0.200,21535.000,0.300,3141.000,0.500,682.000,1.000,394.000,5.000,1.000
"07/06/06","05:11:33","AMMA06",50955.000,"cc",28304.818,6.00,2830.482,1,6,0.100,25017.000,0.200,21714.000,0.300,3139.000,0.500,698.000,1.000,387.000,5.000,0
"07/06/06","05:11:39","AMMA06",50957.000,"cc",28306.703,6.00,2830.670,1,6,0.100,24945.000,0.200,21787.000,0.300,3143.000,0.500,698.000,1.000,384.000,5.000,0
"07/06/06","05:11:45","AMMA06",52775.000,"cc",28384.037,6.00,2838.404,1,6,0.100,25613.000,0.200,22151.000,0.300,3559.000,0.500,932.000,1.000,520.000,5.000,0
"07/06/06","05:11:51","AMMA06",54071.000,"cc",28326.561,6.00,2832.656,1,6,0.100,26333.000,0.200,22455.000,0.300,3703.000,0.500,1064.000,1.000,516.000,5.000,0
"07/06/06","05:11:57","AMMA06",51323.000,"cc",28272.848,6.00,2827.285,1,6,0.100,25318.000,0.200,21771.000,0.300,3145.000,0.500,732.000,1.000,357.000,5.000,0
"07/06/06","05:12:03","AMMA06",53579.000,"cc",28349.127,6.00,2834.913,1,6,0.100,25908.000,0.200,22409.000,0.300,3662.000,0.500,1050.000,1.000,550.000,5.000,0
"07/06/06","05:12:09","AMMA06",50157.000,"cc",28320.799,6.00,2832.080,1,6,0.100,24639.000,0.200,21602.000,0.300,2976.000,0.500,588.000,1.000,352.000,5.000,0
"07/06/06","05:12:15","AMMA06",50712.000,"cc",28333.770,6.00,2833.377,1,6,0.100,24937.000,0.200,21424.000,0.300,3215.000,0.500,765.000,1.000,371.000,5.000,0
"07/06/06","05:12:21","AMMA06",50905.000,"cc",28305.186,6.00,2830.519,1,6,0.100,24810.000,0.200,21771.000,0.300,3167.000,0.500,749.000,1.000,408.000,5.000,0
"07/06/06","05:12:27","AMMA06",50179.000,"cc",28299.002,6.00,2829.900,1,6,0.100,24510.000,0.200,21663.000,0.300,3030.000,0.500,629.000,1.000,347.000,5.000,0
"07/06/06","05:12:33","AMMA06",50993.000,"cc",28313.025,6.00,2831.303,1,6,0.100,24993.000,0.200,21638.000,0.300,3187.000,0.500,749.000,1.000,426.000,5.000,0
"07/06/06","05:12:39","AMMA06",50658.000,"cc",28317.740,6.00,2831.774,1,6,0.100,24703.000,0.200,21763.000,0.300,3061.000,0.500,724.000,1.000,407.000,5.000,0
"07/06/06","05:12:45","AMMA06",50238.000,"cc",28323.656,6.00,2832.366,1,6,0.100,24592.000,0.200,21645.000,0.300,2983.000,0.500,631.000,1.000,387.000,5.000,0
"07/06/06","05:12:51","AMMA06",51335.000,"cc",28330.289,6.00,2833.029,1,6,0.100,25035.000,0.200,21965.000,0.300,3209.000,0.500,701.000,1.000,425.000,5.000,0
"07/06/06","05:12:57","AMMA06",52595.000,"cc",28326.412,6.00,2832.641,1,6,0.100,25483.000,0.200,21998.000,0.300,3642.000,0.500,968.000,1.000,504.000,5.000,0
"07/06/06","05:13:03","AMMA06",50607.000,"cc",28297.147,6.00,2829.715,1,6,0.100,24852.000,0.200,21448.000,0.300,3131.000,0.500,758.000,1.000,418.000,5.000,0
"07/06/06","05:13:09","AMMA06",51260.000,"cc",28312.363,6.00,2831.237,1,6,0.100,25147.000,0.200,21795.000,0.300,3161.000,0.500,752.000,1.000,405.000,5.000,0
"07/06/06","05:13:15","AMMA06",51724.000,"cc",28329.371,6.00,2832.937,1,6,0.100,25300.000,0.200,21801.000,0.300,3319.000,0.500,833.000,1.000,471.000,5.000,0
"07/06/06","05:13:21","AMMA06",51574.000,"cc",28345.484,6.00,2834.549,1,6,0.100,25210.000,0.200,21863.000,0.300,3302.000,0.500,785.000,1.000,414.000,5.000,0
"07/06/06","05:13:27","AMMA06",55369.000,"cc",28310.576,6.00,2831.058,1,6,0.100,26742.000,0.200,22694.000,0.300,4032.000,0.500,1281.000,1.000,620.000,5.000,0
"07/06/06","05:13:33","AMMA06",50101.000,"cc",28348.324,6.00,2834.833,1,6,0.100,24580.000,0.200,21379.000,0.300,3137.000,0.500,623.000,1.000,382.000,5.000,0
"07/06/06","05:13:39","AMMA06",52142.000,"cc",28367.914,6.00,2836.792,1,6,0.100,25520.000,0.200,21809.000,0.300,3454.000,0.500,889.000,1.000,470.000,5.000,0
"07/06/06","05:13:45","AMMA06",51974.000,"cc",28222.035,6.00,2822.204,1,6,0.100,25401.000,0.200,21734.000,0.300,3498.000,0.500,860.000,1.000,481.000,5.000,0
"07/06/06","05:13:51","AMMA06",52234.000,"cc",28277.422,6.00,2827.742,1,6,0.100,25660.000,0.200,21756.000,0.300,3450.000,0.500,884.000,1.000,484.000,5.000,0
"07/06/06","05:13:57","AMMA06",50830.000,"cc",28361.822,6.00,2836.182,1,6,0.100,24960.000,0.200,21338.000,0.300,3321.000,0.500,758.000,1.000,453.000,5.000,0
"07/06/06","05:14:03","AMMA06",51060.000,"cc",28309.117,6.00,2830.912,1,6,0.100,25193.000,0.200,21543.000,0.300,3191.000,0.500,740.000,1.000,393.000,5.000,0
"07/06/06","05:14:09","AMMA06",52413.000,"cc",28363.213,6.00,2836.322,1,6,0.100,25536.000,0.200,21777.000,0.300,3591.000,0.500,981.000,1.000,528.000,5.000,0
"07/06/06","05:14:15","AMMA06",52496.000,"cc",28332.959,6.00,2833.296,1,6,0.100,25542.000,0.200,21889.000,0.300,3607.000,0.500,917.000,1.000,541.000,5.000,0